| time (UTC) | temp F | wind direction | speed MPH | gust MPH | rain 1hr in | rain 24hr in | rain mn in | humidity % | barometer mb |
| 20260906003034 | 67 | 312 | 1.0 | 3.0 | 0.00 | 0.00 | 0.00 | 71 | 1021.3 |
| 20260906001531 | 67 | 320 | 1.0 | 3.0 | 0.00 | 0.00 | 0.00 | 71 | 1021.3 |
| 20260906000029 | 67 | 319 | 0.0 | 2.0 | 0.00 | 0.00 | 0.00 | 71 | 1021.3 |
| 20260905234526 | 68 | 309 | 1.0 | 4.0 | 0.00 | 0.00 | 0.00 | 70 | 1021.1 |
| 20260905233026 | 68 | 299 | 1.0 | 3.0 | 0.00 | 0.00 | 0.00 | 71 | 1021.0 |
| 20260905231522 | 68 | 319 | 1.0 | 3.0 | 0.00 | 0.00 | 0.00 | 71 | 1020.8 |
| 20260905230019 | 69 | 320 | 2.0 | 4.0 | 0.00 | 0.00 | 0.00 | 71 | 1020.7 |
| 20260905224520 | 69 | 320 | 1.0 | 3.0 | 0.00 | 0.00 | 0.00 | 72 | 1020.6 |
| 20260905223015 | 69 | 319 | 0.0 | 2.0 | 0.00 | 0.00 | 0.00 | 73 | 1020.4 |
| 20260905221527 | 70 | 317 | 1.0 | 3.0 | 0.00 | 0.00 | 0.00 | 72 | 1020.2 |
| 20260905220008 | 70 | 318 | 1.0 | 3.0 | 0.00 | 0.00 | 0.00 | 72 | 1020.0 |
| 20260905214506 | 71 | 311 | 1.0 | 3.0 | 0.00 | 0.00 | 0.00 | 71 | 1019.8 |
| 20260905213005 | 71 | 314 | 0.0 | 3.0 | 0.00 | 0.00 | 0.00 | 72 | 1019.6 |
| 20260905211503 | 72 | 315 | 0.0 | 4.0 | 0.00 | 0.00 | 0.00 | 71 | 1019.5 |
| 20260905210002 | 71 | 310 | 1.0 | 3.0 | 0.00 | 0.00 | 0.00 | 73 | 1019.4 |
| 20260905204502 | 72 | 312 | 1.0 | 6.0 | 0.00 | 0.00 | 0.00 | 72 | 1019.3 |
| 20260905203104 | 72 | 327 | 1.0 | 5.0 | 0.00 | 0.00 | 0.00 | 73 | 1019.2 |
| 20260905201608 | 73 | 320 | 1.0 | 3.0 | 0.00 | 0.00 | 0.00 | 72 | 1019.1 |
| 20260905194555 | 74 | 329 | 1.0 | 3.0 | 0.00 | 0.00 | 0.00 | 73 | 1018.6 |
| 20260905193053 | 75 | 329 | 0.0 | 0.0 | 0.00 | 0.00 | 0.00 | 73 | 1018.4 |
| 20260905191552 | 75 | 331 | 0.0 | 1.0 | 0.00 | 0.00 | 0.00 | 71 | 1018.2 |
| 20260905190103 | 76 | 331 | 1.0 | 2.0 | 0.00 | 0.00 | 0.00 | 72 | 1017.9 |
| 20260905184604 | 76 | 329 | 1.0 | 2.0 | 0.00 | 0.00 | 0.00 | 72 | 1017.7 |
| 20260905183048 | 78 | 329 | 1.0 | 2.0 | 0.00 | 0.00 | 0.00 | 70 | 1017.4 |
| 20260905181547 | 78 | 9 | 0.0 | 3.0 | 0.00 | 0.00 | 0.00 | 68 | 1017.0 |
| 20260905180047 | 79 | 5 | 2.0 | 4.0 | 0.00 | 0.00 | 0.00 | 68 | 1016.8 |
| 20260905174554 | 81 | 243 | 1.0 | 4.0 | 0.00 | 0.00 | 0.00 | 62 | 1016.6 |
| 20260905173046 | 82 | 242 | 1.0 | 3.0 | 0.00 | 0.00 | 0.00 | 58 | 1016.4 |
| 20260905171545 | 82 | 242 | 0.0 | 0.0 | 0.00 | 0.00 | 0.00 | 54 | 1016.2 |
| 20260905170045 | 83 | 242 | 0.0 | 1.0 | 0.00 | 0.00 | 0.00 | 51 | 1016.0 |
| 20260905164544 | 83 | 242 | 1.0 | 2.0 | 0.00 | 0.00 | 0.00 | 50 | 1015.8 |
| 20260905163043 | 84 | 242 | 0.0 | 2.0 | 0.00 | 0.00 | 0.00 | 50 | 1015.7 |
| 20260905161542 | 84 | 242 | 0.0 | 2.0 | 0.00 | 0.00 | 0.00 | 52 | 1015.7 |
| 20260905160042 | 84 | 242 | 0.0 | 1.0 | 0.00 | 0.00 | 0.00 | 52 | 1015.6 |
| 20260905154541 | 84 | 242 | 0.0 | 3.0 | 0.00 | 0.00 | 0.00 | 53 | 1015.5 |
| 20260905153040 | 85 | 247 | 2.0 | 3.0 | 0.00 | 0.00 | 0.00 | 52 | 1015.4 |
| 20260905151539 | 86 | 246 | 0.0 | 4.0 | 0.00 | 0.00 | 0.00 | 53 | 1015.4 |
| 20260905150039 | 86 | 240 | 1.0 | 3.0 | 0.00 | 0.00 | 0.00 | 53 | 1015.4 |
| 20260905144637 | 87 | 240 | 2.0 | 4.0 | 0.00 | 0.00 | 0.00 | 52 | 1015.5 |
| 20260905143035 | 87 | 276 | 1.0 | 4.0 | 0.00 | 0.00 | 0.00 | 50 | 1015.5 |
| 20260905141541 | 87 | 28 | 2.0 | 9.0 | 0.00 | 0.00 | 0.00 | 49 | 1015.6 |
| 20260905140030 | 87 | 59 | 3.0 | 6.0 | 0.00 | 0.00 | 0.00 | 47 | 1015.7 |
| 20260905134527 | 86 | 350 | 3.0 | 5.0 | 0.00 | 0.00 | 0.00 | 49 | 1015.8 |
| 20260905133023 | 86 | 252 | 1.0 | 7.0 | 0.00 | 0.00 | 0.00 | 51 | 1016.1 |
| 20260905131539 | 85 | 338 | 3.0 | 6.0 | 0.00 | 0.00 | 0.00 | 50 | 1016.1 |
| 20260905130017 | 85 | 312 | 1.0 | 6.0 | 0.00 | 0.00 | 0.00 | 50 | 1016.2 |
| 20260905124534 | 85 | 314 | 3.0 | 9.0 | 0.00 | 0.00 | 0.00 | 49 | 1016.3 |
| 20260905123013 | 85 | 340 | 4.0 | 6.0 | 0.00 | 0.00 | 0.00 | 50 | 1016.4 |
| 20260905121521 | 85 | 338 | 3.0 | 6.0 | 0.00 | 0.00 | 0.00 | 49 | 1016.5 |
| 20260905120010 | 84 | 300 | 4.0 | 9.0 | 0.00 | 0.00 | 0.00 | 50 | 1016.6 |
| 20260905114521 | 83 | 346 | 4.0 | 9.0 | 0.00 | 0.00 | 0.00 | 50 | 1016.7 |
| 20260905113007 | 84 | 360 | 4.0 | 10.0 | 0.00 | 0.00 | 0.00 | 50 | 1016.8 |
| 20260905111507 | 84 | 320 | 6.0 | 10.0 | 0.00 | 0.00 | 0.00 | 48 | 1016.8 |
| 20260905110002 | 84 | 333 | 4.0 | 10.0 | 0.00 | 0.00 | 0.00 | 49 | 1017.0 |
| 20260905104558 | 83 | 291 | 3.0 | 10.0 | 0.00 | 0.00 | 0.00 | 51 | 1017.1 |
| 20260905103055 | 82 | 340 | 3.0 | 6.0 | 0.00 | 0.00 | 0.00 | 53 | 1017.2 |
| 20260905101615 | 81 | 30 | 5.0 | 9.0 | 0.00 | 0.00 | 0.00 | 54 | 1017.3 |
| 20260905100051 | 80 | 306 | 4.0 | 9.0 | 0.00 | 0.00 | 0.00 | 54 | 1017.4 |
| 20260905094550 | 80 | 344 | 2.0 | 8.0 | 0.00 | 0.00 | 0.00 | 56 | 1017.6 |
| 20260905093046 | 79 | 29 | 2.0 | 8.0 | 0.00 | 0.00 | 0.00 | 58 | 1017.7 |
| 20260905091546 | 78 | 33 | 4.0 | 6.0 | 0.00 | 0.00 | 0.00 | 60 | 1017.8 |
| 20260905090041 | 76 | 293 | 2.0 | 6.0 | 0.00 | 0.00 | 0.00 | 63 | 1017.9 |
| 20260905084557 | 75 | 297 | 2.0 | 4.0 | 0.00 | 0.00 | 0.00 | 62 | 1017.9 |
| 20260905083033 | 75 | 300 | 1.0 | 5.0 | 0.00 | 0.00 | 0.00 | 64 | 1017.9 |
| 20260905081531 | 74 | 306 | 2.0 | 4.0 | 0.00 | 0.00 | 0.00 | 65 | 1017.9 |
| 20260905080029 | 73 | 342 | 4.0 | 6.0 | 0.00 | 0.00 | 0.00 | 67 | 1017.8 |
| 20260905074529 | 73 | 292 | 3.0 | 5.0 | 0.00 | 0.00 | 0.00 | 68 | 1017.8 |
| 20260905073027 | 72 | 272 | 2.0 | 5.0 | 0.00 | 0.00 | 0.00 | 69 | 1017.6 |
| 20260905071529 | 72 | 61 | 2.0 | 4.0 | 0.00 | 0.00 | 0.00 | 71 | 1017.7 |
| 20260905070026 | 71 | 300 | 1.0 | 4.0 | 0.00 | 0.00 | 0.00 | 72 | 1017.6 |
| 20260905064529 | 70 | 5 | 2.0 | 4.0 | 0.00 | 0.00 | 0.00 | 72 | 1017.5 |
| 20260905063027 | 70 | 338 | 1.0 | 3.0 | 0.00 | 0.00 | 0.00 | 75 | 1017.6 |
| 20260905061524 | 69 | 303 | 2.0 | 3.0 | 0.00 | 0.00 | 0.00 | 75 | 1017.7 |
| 20260905060026 | 67 | 300 | 0.0 | 1.0 | 0.00 | 0.00 | 0.00 | 79 | 1017.8 |
| 20260905054523 | 65 | 299 | 1.0 | 2.0 | 0.00 | 0.00 | 0.00 | 79 | 1017.8 |
| 20260905053022 | 65 | 299 | 0.0 | 2.0 | 0.00 | 0.00 | 0.00 | 79 | 1017.9 |
| 20260905051530 | 66 | 321 | 1.0 | 4.0 | 0.00 | 0.00 | 0.00 | 79 | 1017.7 |
| 20260905050019 | 65 | 300 | 0.0 | 2.0 | 0.00 | 0.00 | 0.00 | 79 | 1017.5 |
| 20260905044518 | 66 | 304 | 0.0 | 5.0 | 0.00 | 0.00 | 0.00 | 79 | 1017.4 |
| 20260905043018 | 66 | 324 | 0.0 | 3.0 | 0.00 | 0.00 | 0.00 | 79 | 1017.4 |
| 20260905041517 | 66 | 340 | 0.0 | 0.0 | 0.00 | 0.00 | 0.00 | 79 | 1017.3 |
| 20260905040014 | 66 | 340 | 0.0 | 2.0 | 0.00 | 0.00 | 0.00 | 78 | 1017.0 |
| 20260905034521 | 66 | 341 | 0.0 | 2.0 | 0.00 | 0.00 | 0.00 | 78 | 1017.2 |
| 20260905033010 | 67 | 340 | 0.0 | 3.0 | 0.00 | 0.00 | 0.00 | 78 | 1017.3 |
| 20260905031508 | 67 | 324 | 0.0 | 0.0 | 0.00 | 0.00 | 0.00 | 77 | 1017.5 |
| 20260905030021 | 67 | 324 | 0.0 | 2.0 | 0.00 | 0.00 | 0.00 | 78 | 1017.3 |
| 20260905024507 | 67 | 324 | 0.0 | 0.0 | 0.00 | 0.00 | 0.00 | 78 | 1017.4 |
| 20260905023016 | 68 | 324 | 0.0 | 0.0 | 0.00 | 0.00 | 0.00 | 77 | 1017.3 |
| 20260905021509 | 68 | 324 | 0.0 | 0.0 | 0.00 | 0.00 | 0.00 | 77 | 1017.3 |
| 20260905020004 | 68 | 325 | 0.0 | 0.0 | 0.00 | 0.00 | 0.00 | 77 | 1017.2 |
| 20260905014507 | 68 | 325 | 0.0 | 0.0 | 0.00 | 0.00 | 0.00 | 77 | 1017.1 |
| 20260905013108 | 68 | 336 | 0.0 | 0.0 | 0.00 | 0.00 | 0.00 | 76 | 1017.1 |
| 20260905011601 | 69 | 336 | 0.0 | 0.0 | 0.00 | 0.00 | 0.00 | 75 | 1017.1 |
| 20260905010101 | 69 | 336 | 0.0 | 3.0 | 0.00 | 0.00 | 0.00 | 74 | 1017.2 |
| 20260905004600 | 70 | 11 | 3.0 | 4.0 | 0.00 | 0.00 | 0.00 | 74 | 1017.2 |